DW5536 Weather Reports


Display with metric or nautical units.
time (UTC)temp
F
wind
direction
speed
MPH
gust
MPH
rain 1hr
in
rain 24hr
in
rain mn
in
humidity
%
barometer
mb
20260503210506 65 151 6.0 18.0 0.00 0.00 0.00 38 1015.9
20260503210006 64 190 12.0 16.0 0.00 0.00 0.00 37 1016.0
20260503205506 64 214 8.0 16.0 0.00 0.00 0.00 41 1016.1
20260503205006 64 262 2.0 20.0 0.00 0.00 0.00 38 1016.0
20260503204006 65 156 8.0 20.0 0.00 0.00 0.00 36 1016.3
20260503203506 65 196 2.0 20.0 0.00 0.00 0.00 37 1016.3
20260503203006 65 181 8.0 20.0 0.00 0.00 0.00 39 1016.3
20260503202506 65 204 18.0 20.0 0.00 0.00 0.00 39 1016.5
20260503202005 65 314 6.0 18.0 0.00 0.00 0.00 39 1016.8
20260503201506 65 357 4.0 14.0 0.00 0.00 0.00 37 1016.9
20260503200505 65 190 2.0 12.0 0.00 0.00 0.00 39 1017.1
20260503200005 64 210 10.0 14.0 0.00 0.00 0.00 39 1017.3
20260503195505 64 207 8.0 22.0 0.00 0.00 0.00 38 1017.3
20260503194505 64 221 10.0 18.0 0.00 0.00 0.00 38 1017.6
20260503194005 64 294 4.0 16.0 0.00 0.00 0.00 38 1017.7
20260503193505 64 196 6.0 20.0 0.00 0.00 0.00 41 1017.8
20260503192005 65 186 4.0 18.0 0.00 0.00 0.00 41 1018.0
20260503191505 65 204 10.0 14.0 0.00 0.00 0.00 39 1018.0
20260503190505 65 263 0.0 14.0 0.00 0.00 0.00 40 1018.2
20260503190005 65 274 2.0 12.0 0.00 0.00 0.00 39 1018.2
20260503185505 64 161 4.0 12.0 0.00 0.00 0.00 39 1018.2
20260503184505 64 130 6.0 16.0 0.00 0.00 0.00 41 1018.5
20260503184005 64 186 6.0 14.0 0.00 0.00 0.00 43 1018.6
20260503183505 64 204 14.0 14.0 0.00 0.00 0.00 38 1018.5
20260503182505 63 273 2.0 18.0 0.00 0.00 0.00 42 1018.7
20260503181505 63 175 2.0 16.0 0.00 0.00 0.00 42 1018.7
20260503181004 63 199 16.0 18.0 0.00 0.00 0.00 40 1018.9
20260503180505 63 204 8.0 18.0 0.00 0.00 0.00 41 1018.9
20260503175504 63 204 4.0 14.0 0.00 0.00 0.00 40 1019.0
20260503174504 63 249 4.0 12.0 0.00 0.00 0.00 40 1019.2
20260503174004 63 85 2.0 16.0 0.00 0.00 0.00 39 1019.4
20260503173504 63 287 2.0 16.0 0.00 0.00 0.00 39 1019.4
20260503173004 62 204 4.0 18.0 0.00 0.00 0.00 38 1019.3
20260503172504 62 215 4.0 18.0 0.00 0.00 0.00 43 1019.6
20260503171004 62 46 4.0 14.0 0.00 0.00 0.00 39 1019.9
20260503170504 61 258 0.0 18.0 0.00 0.00 0.00 44 1020.0
20260503151003 57 173 2.0 12.0 0.00 0.00 0.00 45 1021.2
20260503150503 57 250 4.0 12.0 0.00 0.00 0.00 42 1021.3
20260503131002 51 272 0.0 4.0 0.00 0.00 0.00 59 1021.3
20260503110501 28 227 0.0 0.0 0.00 0.00 0.00 92 1020.4
20260503090500 29 227 0.0 0.0 0.00 0.00 0.00 91 1019.8
20260503080500 30 228 0.0 0.0 0.00 0.00 0.00 90 1019.5
20260503072459 31 228 0.0 0.0 0.00 0.00 0.00 90 1019.6
20260503071959 31 227 0.0 0.0 0.00 0.00 0.00 90 1019.5
20260503071500 31 227 0.0 0.0 0.00 0.00 0.00 90 1019.5
20260503070959 31 227 0.0 0.0 0.00 0.00 0.00 90 1019.6
20260503054959 33 228 0.0 0.0 0.00 0.00 0.00 86 1019.7
20260503054459 33 227 0.0 0.0 0.00 0.00 0.00 86 1019.7
20260503053459 34 227 0.0 0.0 0.00 0.00 0.00 86 1019.7
20260503052459 34 228 0.0 0.0 0.00 0.00 0.00 85 1019.8
20260503051458 35 228 0.0 0.0 0.00 0.00 0.00 84 1019.8
20260503050959 35 228 0.0 0.0 0.00 0.00 0.00 84 1019.9
20260503050458 35 228 0.0 0.0 0.00 0.00 0.00 83 1019.9
20260503045958 36 227 0.0 0.0 0.00 0.00 0.00 83 1019.9
20260503044958 37 227 0.0 0.0 0.00 0.00 0.00 82 1020.0
20260503044458 37 228 0.0 0.0 0.00 0.00 0.00 82 1019.9
20260503043458 38 228 0.0 0.0 0.00 0.00 0.00 81 1019.9
20260503042958 38 228 0.0 0.0 0.00 0.00 0.00 80 1019.9
20260503042458 38 228 0.0 0.0 0.00 0.00 0.00 80 1019.9
20260503041958 38 228 0.0 0.0 0.00 0.00 0.00 80 1019.9
20260503041458 39 228 0.0 0.0 0.00 0.00 0.00 79 1019.9
20260503040958 39 228 0.0 0.0 0.00 0.00 0.00 79 1019.8
20260503040458 39 227 0.0 0.0 0.00 0.00 0.00 79 1019.7
20260503040028 39 228 0.0 0.0 0.00 0.00 0.00 79 1019.7
20260503035458 39 228 0.0 0.0 0.00 0.00 0.00 78 1019.8
20260503034958 40 228 0.0 0.0 0.00 0.00 0.00 78 1019.8
20260503034457 40 228 0.0 0.0 0.00 0.00 0.00 77 1019.7
20260503033958 40 228 0.0 0.0 0.00 0.00 0.00 77 1019.7
20260503033458 40 228 0.0 0.0 0.00 0.00 0.00 78 1019.8
20260503032958 41 228 0.0 0.0 0.00 0.00 0.00 78 1019.7
20260503032457 41 228 0.0 0.0 0.00 0.00 0.00 78 1019.7
20260503031958 40 228 0.0 0.0 0.00 0.00 0.00 78 1019.6
20260503031458 40 228 0.0 0.0 0.00 0.00 0.00 79 1019.5
20260503030958 40 228 0.0 0.0 0.00 0.00 0.00 80 1019.6
20260503030457 40 228 0.0 0.0 0.00 0.00 0.00 80 1019.6
20260503030027 40 228 0.0 0.0 0.00 0.00 0.00 81 1019.6
20260503025457 39 228 0.0 0.0 0.00 0.00 0.00 81 1019.4
20260503024957 39 226 0.0 0.0 0.00 0.00 0.00 81 1019.3
20260503024457 39 228 0.0 0.0 0.00 0.00 0.00 81 1019.3
20260503023457 39 228 0.0 0.0 0.00 0.00 0.00 81 1019.1
20260503022957 40 228 0.0 0.0 0.00 0.00 0.00 81 1019.1
20260503021957 40 228 0.0 0.0 0.00 0.00 0.00 79 1018.9
20260503021457 40 228 0.0 0.0 0.00 0.00 0.00 79 1018.8
20260503020957 41 228 0.0 0.0 0.00 0.00 0.00 78 1018.7
20260503015457 42 228 0.0 2.0 0.00 0.00 0.00 76 1018.5
20260503014957 43 228 0.0 2.0 0.00 0.00 0.00 76 1018.4
20260503014457 43 228 2.0 2.0 0.00 0.00 0.00 75 1018.3
20260503013957 44 228 0.0 0.0 0.00 0.00 0.00 73 1018.4
20260503013457 44 228 0.0 0.0 0.00 0.00 0.00 73 1018.3
20260503012957 45 228 0.0 0.0 0.00 0.00 0.00 72 1018.3
20260503012457 46 228 0.0 0.0 0.00 0.00 0.00 71 1018.3
20260503011956 46 228 0.0 2.0 0.00 0.00 0.00 70 1018.3
20260503011026 47 226 0.0 0.0 0.00 0.00 0.00 68 1018.2
20260503010457 48 226 0.0 0.0 0.00 0.00 0.00 68 1018.1
20260503005957 48 227 0.0 0.0 0.00 0.00 0.00 68 1018.0
20260503005457 48 227 0.0 0.0 0.00 0.00 0.00 66 1017.8
20260503004456 48 227 0.0 0.0 0.00 0.00 0.00 66 1017.7
20260503003956 48 227 0.0 0.0 0.00 0.00 0.00 65 1017.6
20260503003456 49 227 0.0 0.0 0.00 0.00 0.00 64 1017.7
20260503002526 50 227 0.0 2.0 0.00 0.00 0.00 62 1017.6
20260503001956 51 227 0.0 2.0 0.00 0.00 0.00 60 1017.5
20260503001456 51 227 0.0 4.0 0.00 0.00 0.00 59 1017.4
20260503000956 51 227 0.0 4.0 0.00 0.00 0.00 57 1017.4
20260503000456 52 17 2.0 6.0 0.00 0.00 0.00 57 1017.4
20260503000026 52 218 0.0 6.0 0.00 0.00 0.00 56 1017.2
20260502234956 53 232 2.0 6.0 0.00 0.00 0.00 56 1017.0
20260502234456 53 235 0.0 6.0 0.00 0.00 0.00 55 1016.9
20260502233956 54 211 2.0 6.0 0.00 0.00 0.00 53 1016.9
20260502232956 54 89 2.0 6.0 0.00 0.00 0.00 55 1017.0
20260502232526 55 31 0.0 12.0 0.00 0.00 0.00 52 1017.0
20260502231956 55 199 4.0 12.0 0.00 0.00 0.00 51 1017.0
20260502231526 56 226 4.0 6.0 0.00 0.00 0.00 50 1017.1
20260502230956 57 29 2.0 10.0 0.00 0.00 0.00 50 1017.2
20260502230456 57 259 0.0 10.0 0.00 0.00 0.00 49 1017.1
20260502225955 57 7 0.0 6.0 0.00 0.00 0.00 50 1017.1
20260502225456 56 271 0.0 6.0 0.00 0.00 0.00 51 1017.0
20260502224956 56 212 4.0 6.0 0.00 0.00 0.00 51 1016.9
20260502224455 56 57 0.0 10.0 0.00 0.00 0.00 52 1016.9
20260502223956 55 23 0.0 10.0 0.00 0.00 0.00 55 1016.9
20260502223526 54 273 0.0 8.0 0.00 0.00 0.00 52 1016.9
20260502222455 54 270 2.0 6.0 0.00 0.00 0.00 53 1017.0
20260502222025 55 238 2.0 8.0 0.00 0.00 0.00 53 1016.9
20260502221525 55 234 2.0 8.0 0.00 0.00 0.00 52 1017.0
20260502220955 55 268 2.0 14.0 0.00 0.00 0.00 53 1016.9
20260502220455 55 291 0.0 14.0 0.00 0.00 0.00 50 1017.0
20260502220026 55 223 8.0 10.0 0.00 0.00 0.00 50 1017.0
20260502215455 56 211 6.0 12.0 0.00 0.00 0.00 49 1017.0
20260502214955 57 230 2.0 12.0 0.00 0.00 0.00 48 1016.9
20260502213955 56 254 4.0 8.0 0.00 0.00 0.00 53 1016.8
20260502213455 56 325 2.0 8.0 0.00 0.00 0.00 51 1016.7
20260502212955 56 320 0.0 6.0 0.00 0.00 0.00 52 1016.7
20260502212455 56 286 2.0 10.0 0.00 0.00 0.00 53 1016.7
20260502212025 55 351 2.0 12.0 0.00 0.00 0.00 53 1016.8